| time (UTC) | temp F | wind direction | speed MPH | gust MPH | rain 1hr in | rain 24hr in | rain mn in | humidity % | barometer mb |
| 20260831231540 | 84 | 158 | 1.0 | 2.0 | 0.00 | 0.00 | 0.00 | 74 | 1018.9 |
| 20260831230518 | 84 | 158 | 1.0 | 2.0 | 0.00 | 0.00 | 0.00 | 73 | 1018.8 |
| 20260831225518 | 85 | 158 | 2.0 | 4.0 | 0.00 | 0.00 | 0.00 | 73 | 1018.6 |
| 20260831224518 | 85 | 158 | 2.0 | 5.0 | 0.00 | 0.00 | 0.00 | 73 | 1018.5 |
| 20260831223520 | 85 | 180 | 2.0 | 5.0 | 0.00 | 0.00 | 0.00 | 71 | 1018.6 |
| 20260831222518 | 86 | 158 | 2.0 | 5.0 | 0.00 | 0.00 | 0.00 | 72 | 1018.5 |
| 20260831221520 | 86 | 180 | 2.0 | 5.0 | 0.00 | 0.00 | 0.00 | 71 | 1018.5 |
| 20260831220518 | 86 | 203 | 2.0 | 6.0 | 0.00 | 0.00 | 0.00 | 71 | 1018.4 |
| 20260831215540 | 86 | 158 | 3.0 | 6.0 | 0.00 | 0.00 | 0.00 | 71 | 1018.4 |
| 20260831214520 | 84 | 225 | 2.0 | 5.0 | 0.00 | 0.00 | 0.00 | 73 | 1018.2 |
| 20260831213520 | 84 | 135 | 1.0 | 5.0 | 0.00 | 0.00 | 0.00 | 72 | 1018.2 |
| 20260831212520 | 84 | 203 | 2.0 | 6.0 | 0.00 | 0.00 | 0.00 | 72 | 1018.0 |
| 20260831211539 | 85 | 180 | 4.0 | 8.0 | 0.00 | 0.00 | 0.00 | 70 | 1017.9 |
| 20260831210519 | 85 | 180 | 3.0 | 8.0 | 0.00 | 0.00 | 0.00 | 68 | 1018.0 |
| 20260831205519 | 85 | 135 | 1.0 | 4.0 | 0.00 | 0.00 | 0.00 | 68 | 1018.0 |
| 20260831204538 | 86 | 270 | 4.0 | 9.0 | 0.00 | 0.00 | 0.00 | 66 | 1018.1 |
| 20260831203519 | 85 | 270 | 3.0 | 7.0 | 0.00 | 0.00 | 0.00 | 68 | 1018.2 |
| 20260831202518 | 85 | 293 | 2.0 | 11.0 | 0.00 | 0.00 | 0.00 | 68 | 1018.2 |
| 20260831201558 | 84 | 293 | 3.0 | 7.0 | 0.00 | 0.00 | 0.00 | 69 | 1018.3 |
| 20260831200519 | 84 | 180 | 2.0 | 7.0 | 0.00 | 0.00 | 0.00 | 69 | 1018.4 |
| 20260831195519 | 84 | 180 | 2.0 | 7.0 | 0.00 | 0.00 | 0.00 | 68 | 1018.5 |
| 20260831194518 | 84 | 270 | 5.0 | 9.0 | 0.00 | 0.00 | 0.00 | 70 | 1018.7 |
| 20260831193519 | 84 | 293 | 4.0 | 10.0 | 0.00 | 0.00 | 0.00 | 70 | 1018.9 |
| 20260831192519 | 84 | 293 | 3.0 | 11.0 | 0.00 | 0.00 | 0.00 | 71 | 1018.9 |
| 20260831191518 | 83 | 270 | 4.0 | 9.0 | 0.00 | 0.00 | 0.00 | 73 | 1019.1 |
| 20260831190518 | 84 | 293 | 4.0 | 13.0 | 0.00 | 0.00 | 0.00 | 72 | 1019.4 |
| 20260831185518 | 84 | 293 | 4.0 | 12.0 | 0.00 | 0.00 | 0.00 | 70 | 1019.5 |
| 20260831184518 | 84 | 270 | 6.0 | 14.0 | 0.00 | 0.00 | 0.00 | 67 | 1019.5 |
| 20260831183559 | 86 | 293 | 6.0 | 15.0 | 0.00 | 0.00 | 0.00 | 68 | 1019.5 |
| 20260831182518 | 85 | 293 | 4.0 | 11.0 | 0.00 | 0.00 | 0.00 | 69 | 1019.3 |
| 20260831181518 | 84 | 270 | 5.0 | 12.0 | 0.00 | 0.00 | 0.00 | 70 | 1019.4 |
| 20260831180518 | 84 | 270 | 4.0 | 11.0 | 0.00 | 0.01 | 0.00 | 71 | 1019.5 |
| 20260831175518 | 84 | 270 | 4.0 | 11.0 | 0.00 | 0.01 | 0.00 | 71 | 1019.6 |
| 20260831174518 | 84 | 270 | 4.0 | 11.0 | 0.00 | 0.01 | 0.00 | 70 | 1019.7 |
| 20260831173519 | 85 | 270 | 5.0 | 11.0 | 0.00 | 0.01 | 0.00 | 69 | 1019.8 |
| 20260831172518 | 85 | 315 | 3.0 | 9.0 | 0.00 | 0.01 | 0.00 | 69 | 1020.0 |
| 20260831171518 | 86 | 270 | 5.0 | 11.0 | 0.00 | 0.01 | 0.00 | 69 | 1020.2 |
| 20260831170538 | 86 | 270 | 6.0 | 13.0 | 0.00 | 0.01 | 0.00 | 70 | 1020.3 |
| 20260831165518 | 85 | 270 | 3.0 | 12.0 | 0.00 | 0.01 | 0.00 | 70 | 1020.4 |
| 20260831164518 | 86 | 270 | 6.0 | 13.0 | 0.00 | 0.01 | 0.00 | 68 | 1020.4 |
| 20260831163538 | 85 | 270 | 5.0 | 12.0 | 0.00 | 0.01 | 0.00 | 71 | 1020.3 |
| 20260831162518 | 85 | 248 | 5.0 | 10.0 | 0.00 | 0.01 | 0.00 | 71 | 1020.4 |
| 20260831161518 | 85 | 270 | 5.0 | 12.0 | 0.00 | 0.01 | 0.00 | 72 | 1020.4 |
| 20260831160540 | 86 | 270 | 6.0 | 11.0 | 0.00 | 0.01 | 0.00 | 69 | 1020.4 |
| 20260831155558 | 85 | 270 | 5.0 | 12.0 | 0.00 | 0.01 | 0.00 | 70 | 1020.3 |
| 20260831154518 | 86 | 270 | 4.0 | 10.0 | 0.00 | 0.01 | 0.00 | 69 | 1020.3 |
| 20260831153520 | 86 | 270 | 4.0 | 10.0 | 0.00 | 0.01 | 0.00 | 68 | 1020.3 |
| 20260831152520 | 85 | 315 | 4.0 | 14.0 | 0.00 | 0.01 | 0.00 | 69 | 1020.3 |
| 20260831151518 | 85 | 270 | 4.0 | 9.0 | 0.00 | 0.01 | 0.00 | 67 | 1020.3 |
| 20260831150520 | 84 | 270 | 4.0 | 9.0 | 0.00 | 0.01 | 0.00 | 67 | 1020.4 |
| 20260831145519 | 83 | 270 | 4.0 | 10.0 | 0.00 | 0.01 | 0.00 | 66 | 1020.3 |
| 20260831144539 | 83 | 270 | 4.0 | 10.0 | 0.00 | 0.01 | 0.00 | 67 | 1020.4 |
| 20260831143519 | 83 | 270 | 5.0 | 11.0 | 0.00 | 0.01 | 0.00 | 69 | 1020.3 |
| 20260831142519 | 82 | 270 | 2.0 | 6.0 | 0.00 | 0.01 | 0.00 | 73 | 1020.1 |
| 20260831141519 | 81 | 225 | 4.0 | 7.0 | 0.00 | 0.01 | 0.00 | 73 | 1019.9 |
| 20260831140559 | 81 | 158 | 2.0 | 7.0 | 0.00 | 0.01 | 0.00 | 75 | 1019.7 |
| 20260831135519 | 80 | 203 | 3.0 | 7.0 | 0.00 | 0.01 | 0.00 | 76 | 1019.7 |
| 20260831134519 | 79 | 180 | 4.0 | 7.0 | 0.00 | 0.01 | 0.00 | 77 | 1019.6 |
| 20260831133519 | 78 | 180 | 3.0 | 7.0 | 0.00 | 0.01 | 0.00 | 79 | 1019.6 |
| 20260831132519 | 77 | 180 | 3.0 | 6.0 | 0.00 | 0.01 | 0.00 | 81 | 1019.6 |
| 20260831131519 | 76 | 203 | 3.0 | 6.0 | 0.00 | 0.01 | 0.00 | 81 | 1019.8 |
| 20260831130519 | 75 | 180 | 3.0 | 8.0 | 0.00 | 0.01 | 0.00 | 83 | 1019.7 |
| 20260831125519 | 75 | 180 | 3.0 | 7.0 | 0.00 | 0.01 | 0.00 | 83 | 1019.6 |
| 20260831124519 | 75 | 180 | 4.0 | 10.0 | 0.00 | 0.01 | 0.00 | 83 | 1019.4 |
| 20260831123559 | 75 | 158 | 4.0 | 10.0 | 0.00 | 0.01 | 0.00 | 83 | 1019.3 |
| 20260831122519 | 75 | 180 | 3.0 | 8.0 | 0.00 | 0.01 | 0.00 | 83 | 1019.5 |
| 20260831121518 | 74 | 180 | 3.0 | 8.0 | 0.00 | 0.01 | 0.00 | 83 | 1019.5 |
| 20260831120639 | 74 | 180 | 3.0 | 8.0 | 0.00 | 0.01 | 0.00 | 83 | 1019.5 |
| 20260831115518 | 74 | 180 | 3.0 | 7.0 | 0.00 | 0.01 | 0.00 | 83 | 1019.6 |
| 20260831114519 | 74 | 135 | 2.0 | 6.0 | 0.00 | 0.01 | 0.00 | 83 | 1019.5 |
| 20260831113519 | 74 | 158 | 3.0 | 8.0 | 0.00 | 0.01 | 0.00 | 83 | 1019.5 |
| 20260831112518 | 73 | 180 | 2.0 | 5.0 | 0.00 | 0.01 | 0.00 | 84 | 1019.5 |
| 20260831111519 | 73 | 158 | 3.0 | 9.0 | 0.00 | 0.01 | 0.00 | 83 | 1019.6 |
| 20260831110519 | 73 | 180 | 2.0 | 5.0 | 0.00 | 0.01 | 0.00 | 83 | 1019.4 |
| 20260831105519 | 74 | 180 | 3.0 | 5.0 | 0.00 | 0.01 | 0.00 | 83 | 1019.3 |
| 20260831104559 | 74 | 158 | 2.0 | 5.0 | 0.00 | 0.01 | 0.00 | 83 | 1019.3 |
| 20260831103518 | 74 | 158 | 2.0 | 5.0 | 0.00 | 0.01 | 0.00 | 83 | 1019.3 |
| 20260831102538 | 74 | 180 | 3.0 | 8.0 | 0.00 | 0.01 | 0.00 | 83 | 1019.2 |
| 20260831101519 | 74 | 270 | 1.0 | 3.0 | 0.00 | 0.01 | 0.00 | 83 | 1019.2 |
| 20260831100518 | 74 | 180 | 2.0 | 5.0 | 0.00 | 0.01 | 0.00 | 83 | 1019.1 |
| 20260831095518 | 74 | 158 | 3.0 | 5.0 | 0.00 | 0.01 | 0.00 | 83 | 1018.9 |
| 20260831094518 | 73 | 203 | 2.0 | 7.0 | 0.00 | 0.01 | 0.00 | 83 | 1018.9 |
| 20260831093538 | 73 | 180 | 1.0 | 4.0 | 0.00 | 0.01 | 0.00 | 83 | 1018.9 |
| 20260831092538 | 74 | 158 | 3.0 | 8.0 | 0.00 | 0.01 | 0.00 | 83 | 1018.9 |
| 20260831091518 | 73 | 180 | 4.0 | 7.0 | 0.00 | 0.01 | 0.00 | 83 | 1018.9 |
| 20260831090518 | 73 | 180 | 3.0 | 6.0 | 0.00 | 0.01 | 0.00 | 84 | 1018.9 |
| 20260831085518 | 72 | 158 | 3.0 | 6.0 | 0.00 | 0.01 | 0.00 | 85 | 1018.8 |
| 20260831084518 | 72 | 203 | 1.0 | 3.0 | 0.00 | 0.01 | 0.00 | 85 | 1019.2 |
| 20260831083518 | 73 | 248 | 1.0 | 2.0 | 0.00 | 0.01 | 0.00 | 85 | 1019.3 |
| 20260831082518 | 72 | 0.0 | 3.0 | 0.00 | 0.01 | 0.00 | 86 | 1019.4 | |
| 20260831081518 | 72 | 0.0 | 0.0 | 0.00 | 0.01 | 0.00 | 86 | 1019.4 | |
| 20260831080538 | 72 | 0.0 | 3.0 | 0.00 | 0.01 | 0.00 | 85 | 1019.3 | |
| 20260831075518 | 73 | 0.0 | 1.0 | 0.00 | 0.01 | 0.00 | 85 | 1019.3 | |
| 20260831074518 | 73 | 0.0 | 3.0 | 0.00 | 0.01 | 0.00 | 83 | 1019.3 | |
| 20260831073518 | 73 | 0.0 | 1.0 | 0.00 | 0.01 | 0.00 | 82 | 1019.4 | |
| 20260831072518 | 74 | 180 | 1.0 | 3.0 | 0.00 | 0.01 | 0.00 | 81 | 1019.3 |
| 20260831071538 | 74 | 180 | 1.0 | 2.0 | 0.00 | 0.01 | 0.00 | 81 | 1019.3 |
| 20260831070518 | 74 | 180 | 2.0 | 4.0 | 0.00 | 0.01 | 0.00 | 81 | 1019.4 |
| 20260831065518 | 73 | 180 | 2.0 | 4.0 | 0.00 | 0.01 | 0.00 | 82 | 1019.4 |
| 20260831064520 | 73 | 180 | 2.0 | 6.0 | 0.00 | 0.01 | 0.00 | 84 | 1019.5 |
| 20260831063520 | 73 | 158 | 2.0 | 7.0 | 0.00 | 0.01 | 0.00 | 85 | 1019.5 |
| 20260831062518 | 73 | 180 | 1.0 | 4.0 | 0.00 | 0.01 | 0.00 | 86 | 1019.6 |
| 20260831061520 | 73 | 180 | 3.0 | 6.0 | 0.00 | 0.01 | 0.00 | 87 | 1019.6 |
| 20260831060520 | 73 | 158 | 3.0 | 6.0 | 0.00 | 0.01 | 0.00 | 87 | 1019.6 |
| 20260831055540 | 73 | 158 | 1.0 | 4.0 | 0.00 | 0.01 | 0.00 | 87 | 1019.6 |
| 20260831054519 | 73 | 158 | 2.0 | 6.0 | 0.00 | 0.01 | 0.00 | 87 | 1019.6 |
| 20260831053519 | 73 | 158 | 3.0 | 6.0 | 0.00 | 0.01 | 0.00 | 87 | 1019.7 |
| 20260831052519 | 73 | 158 | 2.0 | 5.0 | 0.00 | 0.01 | 0.00 | 86 | 1019.9 |
| 20260831051539 | 73 | 158 | 3.0 | 6.0 | 0.00 | 0.01 | 0.00 | 86 | 1019.9 |
| 20260831050559 | 73 | 135 | 2.0 | 5.0 | 0.00 | 0.01 | 0.00 | 86 | 1019.9 |
| 20260831045538 | 73 | 158 | 2.0 | 5.0 | 0.00 | 0.01 | 0.00 | 86 | 1019.8 |
| 20260831044559 | 73 | 158 | 2.0 | 5.0 | 0.00 | 0.01 | 0.00 | 86 | 1019.8 |
| 20260831043519 | 73 | 135 | 2.0 | 6.0 | 0.00 | 0.01 | 0.00 | 87 | 1019.8 |
| 20260831042519 | 73 | 180 | 3.0 | 5.0 | 0.00 | 0.01 | 0.00 | 87 | 1019.7 |
| 20260831040518 | 73 | 158 | 3.0 | 7.0 | 0.00 | 0.01 | 0.00 | 87 | 1019.8 |
| 20260831035518 | 73 | 158 | 4.0 | 8.0 | 0.00 | 0.01 | 0.01 | 87 | 1019.8 |
| 20260831034538 | 73 | 135 | 3.0 | 8.0 | 0.00 | 0.01 | 0.01 | 87 | 1019.9 |
| 20260831033558 | 73 | 158 | 2.0 | 6.0 | 0.00 | 0.01 | 0.01 | 88 | 1019.9 |
| 20260831032520 | 73 | 135 | 2.0 | 5.0 | 0.00 | 0.01 | 0.01 | 88 | 1020.0 |
| 20260831031520 | 73 | 135 | 3.0 | 5.0 | 0.00 | 0.01 | 0.01 | 88 | 1020.0 |
| 20260831030518 | 73 | 135 | 3.0 | 7.0 | 0.00 | 0.01 | 0.01 | 89 | 1020.0 |
| 20260831025518 | 73 | 135 | 3.0 | 5.0 | 0.00 | 0.01 | 0.01 | 90 | 1020.0 |
| 20260831024520 | 73 | 135 | 2.0 | 4.0 | 0.00 | 0.01 | 0.01 | 90 | 1020.1 |
| 20260831023519 | 73 | 135 | 2.0 | 4.0 | 0.00 | 0.01 | 0.01 | 90 | 1020.0 |
| 20260831022538 | 73 | 135 | 2.0 | 5.0 | 0.00 | 0.01 | 0.01 | 90 | 1020.0 |
| 20260831021518 | 73 | 113 | 2.0 | 4.0 | 0.00 | 0.01 | 0.01 | 90 | 1020.1 |
| 20260831020519 | 73 | 113 | 2.0 | 4.0 | 0.00 | 0.01 | 0.01 | 90 | 1020.1 |
| 20260831015519 | 74 | 113 | 2.0 | 4.0 | 0.00 | 0.01 | 0.01 | 90 | 1020.0 |
| 20260831014519 | 74 | 135 | 2.0 | 5.0 | 0.00 | 0.01 | 0.01 | 90 | 1019.9 |
| 20260831013519 | 74 | 113 | 2.0 | 4.0 | 0.00 | 0.01 | 0.01 | 90 | 1019.9 |
| 20260831012519 | 74 | 113 | 3.0 | 5.0 | 0.00 | 0.01 | 0.01 | 89 | 1019.8 |
| 20260831011518 | 74 | 113 | 1.0 | 3.0 | 0.00 | 0.01 | 0.01 | 89 | 1019.9 |
| 20260831010519 | 74 | 135 | 1.0 | 4.0 | 0.00 | 0.01 | 0.01 | 88 | 1019.8 |
| 20260831005519 | 74 | 113 | 1.0 | 3.0 | 0.00 | 0.01 | 0.01 | 87 | 1019.7 |
| 20260831004518 | 75 | 113 | 1.0 | 3.0 | 0.00 | 0.01 | 0.01 | 86 | 1019.6 |
| 20260831003519 | 75 | 113 | 2.0 | 4.0 | 0.00 | 0.01 | 0.01 | 85 | 1019.5 |
| 20260831002519 | 76 | 113 | 1.0 | 4.0 | 0.00 | 0.01 | 0.01 | 84 | 1019.7 |
| 20260831001518 | 77 | 113 | 1.0 | 2.0 | 0.00 | 0.01 | 0.01 | 83 | 1019.9 |
| 20260831000518 | 77 | 315 | 1.0 | 2.0 | 0.00 | 0.01 | 0.01 | 82 | 1020.0 |
| 20260830235518 | 78 | 0.0 | 0.0 | 0.00 | 0.01 | 0.01 | 81 | 1020.1 | |
| 20260830234518 | 78 | 0.0 | 1.0 | 0.00 | 0.01 | 0.01 | 80 | 1020.0 | |
| 20260830233519 | 78 | 0.0 | 0.0 | 0.00 | 0.01 | 0.01 | 79 | 1020.1 | |
| 20260830232518 | 79 | 0.0 | 2.0 | 0.00 | 0.01 | 0.01 | 78 | 1020.1 |